This demonstration page uses our WeatherBlox Daily Observations layout. Learn more.

Left ArrowRight Arrow

34.02893, -84.19858

Hourly Observations for February 12, 2021

Temp ( °F °C ) Dew Point ( °F °C ) Humidity (%) Winds ( mph kmh ) Pressure ( in mb ) Visibility ( mi km ) Precip ( " mm )
12:16 am 00:16 Cloudy 57 13.9 57 13.9 100 100 Calm 29.96 1014 9 14 0.00 0.00
12:32 am 00:32 Mostly Cloudy with Mist and Fog 57 13.9 57 13.9 100 100 SE 5 7 29.96 1014 5 8 0.00 0.00
12:44 am 00:44 Partly Cloudy with Mist and Fog 57 13.9 57 13.9 100 100 SSE 5 7 29.96 1014 5 8 0.00 0.00
12:53 am 00:53 Mostly Clear with Mist and Fog 57 13.9 57 13.9 100 100 ESE 5 7 29.94 1014 2 3 0.00 0.00
1:05 am 01:05 Clear with Mist and Fog 57 13.9 57 13.9 100 100 SSE 3 6 29.95 1014 3 5 0.00 0.00
1:28 am 01:28 Mostly Clear with Mist and Fog 56 13.3 56 13.3 100 100 Calm 29.96 1015 2 3 0.00 0.00
1:34 am 01:34 Mostly Cloudy with Mist and Fog 56 13.3 56 13.3 100 100 NNW 5 7 29.96 1015 1 2 0.00 0.00
1:41 am 01:41 Partly Cloudy with Mist and Fog 56 13.3 56 13.3 100 100 Calm 29.95 1014 3 4 0.00 0.00
1:48 am 01:48 Partly Cloudy with Mist and Fog 55 13 55 13 100 100 NNW 3 6 29.97 1015 3 5 0.00 0.00
1:53 am 01:53 Mostly Cloudy with Mist and Fog 56 13.3 56 13.3 100 100 NNW 5 7 29.96 1015 3 4 0.00 0.00
2:01 am 02:01 Mostly Cloudy with Mist and Fog 56 13.3 56 13.3 100 100 N 3 6 29.97 1015 4 6 0.00 0.00
2:14 am 02:14 Cloudy with Mist and Fog 57 13.9 57 13.9 100 100 Calm 29.96 1014 3 4 0.00 0.00
2:19 am 02:19 Cloudy with Mist and Fog 57 13.9 57 13.9 100 100 Calm 29.96 1014 1 2 0.00 0.00
2:27 am 02:27 Cloudy with Mist and Fog 57 13.9 57 13.9 100 100 Calm 29.96 1014 3 5 0.00 0.00
2:41 am 02:41 Cloudy with Mist and Fog 57 13.9 57 13.9 100 100 NW 5 7 29.97 1015 6 10 0.00 0.00
2:53 am 02:53 Cloudy with Mist and Fog 57 13.9 57 13.9 100 100 Calm 29.96 1015 6 10 0.00 0.00
3:26 am 03:26 Cloudy with Mist and Fog 57 13.9 57 13.9 100 100 Calm 29.97 1015 2 3 0.00 0.00
3:32 am 03:32 Cloudy with Fog 57 13.9 57 13.9 100 100 Calm 29.97 1015 1 1 0.00 0.00
3:39 am 03:39 Cloudy with Mist and Fog 56 13.3 56 13.3 100 100 Calm 29.97 1015 1 1 0.00 0.00
3:45 am 03:45 Cloudy with Mist and Fog 56 13.3 56 13.3 100 100 Calm 29.97 1015 2 3 0.00 0.00
3:53 am 03:53 Cloudy with Light Rain 57 13.9 57 13.9 100 100 Calm 29.96 1015 3 4 0.00 0.00
4:02 am 04:02 Cloudy with Light Rain 57 13.9 57 13.9 100 100 SE 3 6 29.97 1015 2 3 0.00 0.00
4:11 am 04:11 Cloudy with Mist and Fog 56 13.3 56 13.3 100 100 SE 3 6 29.97 1015 2 3 0.00 0.00
4:20 am 04:20 Cloudy with Light Rain 56 13.3 56 13.3 100 100 SE 3 6 29.96 1015 2 3 0.00 0.00
4:26 am 04:26 Cloudy with Mist and Fog 57 13.9 57 13.9 100 100 SE 3 6 29.95 1014 2 2 0.00 0.00
4:36 am 04:36 Cloudy with Mist and Fog 57 13.9 57 13.9 100 100 SE 3 6 29.95 1014 3 5 0.00 0.00
4:53 am 04:53 Cloudy with Mist and Fog 56 13.3 56 13.3 100 100 Calm 29.95 1014 4 6 0.00 0.00
5:03 am 05:03 Cloudy with Mist and Fog 56 13.3 56 13.3 100 100 Calm 29.96 1015 4 6 0.00 0.00
5:08 am 05:08 Cloudy with Mist and Fog 56 13.3 56 13.3 100 100 N 3 6 29.96 1015 3 4 0.00 0.00
5:18 am 05:18 Cloudy with Mist and Fog 56 13.3 56 13.3 100 100 Calm 29.96 1015 1 2 0.00 0.00
5:25 am 05:25 Cloudy with Mist and Fog 56 13.3 56 13.3 100 100 Calm 29.96 1015 1 2 0.00 0.00
5:38 am 05:38 Cloudy with Mist and Fog 57 13.9 57 13.9 100 100 Calm 29.96 1014 3 5 0.00 0.00
5:42 am 05:42 Cloudy with Mist and Fog 56 13.3 56 13.3 100 100 Calm 29.96 1015 2 3 0.00 0.00
5:49 am 05:49 Cloudy with Fog 55 13 55 13 100 100 Calm 29.97 1015 1 1 0.00 0.00
5:53 am 05:53 Cloudy with Mist and Fog 56 13.3 56 13.3 100 100 Calm 29.96 1015 1 1 0.00 0.00
6:00 am 06:00 Cloudy with Mist and Fog 56 13.3 56 13.3 100 100 Calm 29.98 1015 1 2 0.00 0.00
6:22 am 06:22 Cloudy with Mist and Fog 57 13.9 57 13.9 100 100 Calm 29.98 1015 3 5 0.00 0.00
6:53 am 06:53 Cloudy with Mist and Fog 57 13.9 57 13.9 100 100 ESE 3 6 29.97 1015 4 6 0.00 0.00
7:07 am 07:07 Cloudy with Mist and Fog 57 13.9 57 13.9 100 100 Calm 29.99 1015 4 6 0.00 0.00
7:34 am 07:34 Cloudy with Mist and Fog 51 10.6 51 10.6 100 100 VRB 7 11 30.02 1017 3 4 0.00 0.00
7:53 am 07:53 Cloudy with Light Rain 49 9.4 49 9.4 100 100 VRB 7 11 30.02 1017 3 5 0.00 0.00
8:09 am 08:09 Cloudy with Light Rain 48 8.9 48 8.9 100 100 VRB 6 9 30.05 1017 3 4 0.00 0.00
8:25 am 08:25 Cloudy with Mist and Fog 46 7.8 46 7.8 100 100 VRB 6 9 30.06 1018 3 5 0.00 0.00
8:50 am 08:50 Cloudy with Mist and Fog 45 7 45 7 100 100 undefined N/A 30.09 1019 4 6 0.00 0.00
8:53 am 08:53 Cloudy with Mist and Fog 45 7.2 45 7.2 100 100 VRB 3 6 30.07 1018 2 3 0.00 0.00
9:53 am 09:53 Cloudy with Mist and Fog 44 6.7 44 6.7 100 100 VRB 3 6 30.10 1019 2 3 0.01 0.25
10:17 am 10:17 Cloudy with Mist and Fog 43 6.1 42 5.6 97 97 NNE 8 13 30.12 1020 2 3 0.00 0.00
10:53 am 10:53 Cloudy with Mist and Fog 43 6.1 42 5.6 97 97 NE 8 13 30.10 1019 3 5 0.00 0.00
11:53 am 11:53 Cloudy 43 6.1 42 5.6 97 97 NE 8 13 30.09 1019 7 11 0.00 0.00
12:00 pm 12:00 Cloudy 43 6.1 42 5.6 97 97 NE 7 11 30.12 1020 7 11 0.00 0.00
12:53 pm 12:53 Cloudy with Mist and Fog 42 5.6 41 5 96 96 undefined N/A 30.09 1019 3 5 0.00 0.00
1:00 pm 13:00 Cloudy with Mist and Fog 43 6.1 42 5.6 97 97 VRB 5 7 30.10 1019 2 3 0.00 0.00
1:53 pm 13:53 Cloudy 43 6.1 41 5 93 93 ENE 7 11 30.06 1018 2 3 0.00 0.00
2:00 pm 14:00 Cloudy 42 5.6 41 5 96 96 VRB 5 7 30.08 1019 3 5 0.00 0.00
2:53 pm 14:53 Cloudy with Mist and Fog 42 5.6 41 5 96 96 ENE 6 9 30.04 1017 3 5 0.00 0.00
3:53 pm 15:53 Cloudy with Mist and Fog 42 5.6 41 5 96 96 VRB 6 9 30.05 1018 6 10 0.00 0.00
4:53 pm 16:53 Cloudy 42 5.6 41 5 96 96 E 8 13 30.06 1018 7 11 0.00 0.00
5:53 pm 17:53 Cloudy with Mist and Fog 42 5.6 40 4.4 92 92 Calm 30.06 1018 5 8 0.00 0.00
6:53 pm 18:53 Cloudy with Light Rain 41 5 40 4.4 96 96 Calm 30.07 1018 5 8 0.01 0.25
7:53 pm 19:53 Cloudy 41 5 40 4.4 96 96 VRB 3 6 30.09 1019 7 11 0.00 0.00
8:53 pm 20:53 Cloudy with Mist and Fog 41 5 40 4.4 96 96 ENE 3 6 30.09 1019 6 10 0.00 0.00
9:53 pm 21:53 Cloudy with Mist and Fog 40 4.4 40 4.4 100 100 VRB 5 7 30.09 1019 4 6 0.00 0.00
10:00 pm 22:00 Cloudy with Mist and Fog 40 4.4 40 4.4 100 100 ENE 3 6 30.09 1019 4 6 0.00 0.00
10:53 pm 22:53 Cloudy with Mist and Fog 40 4.4 40 4.4 100 100 Calm 30.10 1019 3 5 0.00 0.00
11:53 pm 23:53 Cloudy with Light Rain 40 4.4 39 3.9 97 97 undefined N/A 30.09 1019 4 6 0.00 0.00

Powered by AerisWeather